Regional Weather Roundup
Issued by NWS Cleveland, OH

Home | Current Version | Previous Version | Text Only | Print | Product List | Glossary Off
Versions: 1 2 3 4 5 6 7 8 9 10 11 12 13 14 15 16 17 18 19 20 21 22 23 24 25 26 27 28 29 30 31 32 33 34 35 36 37 38 39 40 41 42 43 44 45 46 47 48 49 50

000
ASUS41 KCLE 280510
RWRCLE
OHIO REGIONAL WEATHER ROUNDUP
NATIONAL WEATHER SERVICE WILMINGTON, OH
100 AM EDT TUE JUL 28 2015

NOTE: "FAIR" INDICATES FEW OR NO CLOUDS BELOW 12,000 FEET WITH NO
SIGNIFICANT WEATHER AND/OR OBSTRUCTIONS TO VISIBILITY.

OHZ001>008-015>018-024>027-034-035-043-044-280600-
   NORTHWEST OHIO

CITY           SKY/WX    TMP DP  RH WIND       PRES   REMARKS
DEFIANCE       PTCLDY    67  63  87 CALM      30.04S
FINDLAY        PTCLDY    71  62  73 E3        30.03S
TOLEDO EXPRESS CLEAR     66  62  87 CALM      30.04S
TOLEDO EXEC    CLEAR     70  61  73 CALM      30.05S
LIMA           PTCLDY    68  63  84 E5        30.04F
$$

OHZ009>014-019>023-028>033-038-089-280600-
   NORTHEAST OHIO

CITY           SKY/WX    TMP DP  RH WIND       PRES   REMARKS
CLE-HOPKINS    MOCLDY    75  61  61 E3        30.06S
CLE-LAKEFRONT  CLEAR     76  65  68 CALM      30.03S
CUY CO. ARPT   NOT AVBL
LORAIN-ELYRIA  PTCLDY    66  63  90 CALM      30.05S
ASHTABULA      CLEAR     64  63  96 CALM      30.07S
AKRON-CANTON   PTCLDY    71  63  75 NE8       30.05F
WOOSTER        PTCLDY    66  63  90 CALM      30.06S
MANSFIELD      PTCLDY    67  62  84 NE6       30.06S
YOUNGSTOWN     PTCLDY    68  62  81 NE6       30.06S
$$

OHZ042-051>053-060>062-070>072-077>081-280600-
  SOUTHWEST OHIO

CITY           SKY/WX    TMP DP  RH WIND       PRES   REMARKS
CINC-COVINGTON CLOUDY    77  72  84 E3        30.01F
CINC-LUNKEN    MOCLDY    72  72 100 CALM      30.00F FOG
HAMILTON       MOCLDY    72  71  97 CALM      30.01F
DAYTON         CLOUDY    74  69  85 NE5       30.03F
WRIGHT-PAT AFB MOCLDY    74  71  88 N1        30.01F
DAYTON GENERAL   N/A    N/A N/A N/A MISG      30.01F
WILMINGTON     CLOUDY    74  71  91 CALM      30.02S
$$

OHZ036-037-039>041-045>050-054>059-063>069-073>076-082>088-280600-
  CENTRAL AND SOUTHEAST OHIO

CITY           SKY/WX    TMP DP  RH WIND       PRES   REMARKS
COLUMBUS       MOCLDY    73  65  75 N3        30.01S
OSU AIRPORT    MOCLDY    72  65  78 N3        30.03R
BOLTON FIELD   CLOUDY    73  69  89 CALM      30.03S
RICKENBACK AFB CLOUDY    76  70  84 CALM      30.01S
NEWARK         CLEAR     72  67  84 CALM      30.02S
MARION         PTCLDY    69  63  81 NE3       30.04S
LANCASTER      MOCLDY    71  68  90 CALM      30.02S FOG
ZANESVILLE     MOCLDY    72  67  84 CALM      30.02S
NEW PHILLY     PTCLDY    66  65  96 CALM      30.04F
$$


USA.gov is the U.S. government's official web portal to all federal, state and local government web resources and services.